Total_Precipitation_Accumulation
0.00 0.00 0.00 0.00 0.00 0.00 0.00 0.00 0.01 0.00 0.00 0.00 0.00 0.00 0.00 0.00 0.00 0.00 0.00 0.00 0.00 0.00 0.00 0.00 0.00 0.01 0.00 0.02 0.07 0.10 0.09 0.15 0.12 0.22 0.17 0.14 0.10 0.12 0.15 0.17 0.24 0.19 0.18 0.09
0.00 0.00 0.00 0.00 0.00 0.00 0.00 0.00 0.00 0.00 0.00 0.00 0.00 0.00 0.00 0.00 0.00 0.00 0.00 0.00 0.00 0.00 0.00 0.00 0.00 0.00 0.00 0.01 0.04 0.04 0.04 0.08 0.06 0.10 0.10 0.10 0.06 0.06 0.09 0.10 0.11 0.13 0.15 0.13
0.01 0.00 0.00 0.00 0.00 0.00 0.00 0.00 0.00 0.00 0.00 0.00 0.00 0.00 0.00 0.00 0.00 0.00 0.00 0.00 0.00 0.00 0.00 0.01 0.00 0.00 0.00 0.01 0.01 0.02 0.05 0.04 0.05 0.06 0.08 0.06 0.09 0.06 0.08 0.11 0.08 0.08 0.11 0.18
0.05 0.01 0.04 0.02 0.00 0.00 0.00 0.00 0.00 0.00 0.00 0.00 0.00 0.00 0.00 0.00 0.00 0.00 0.00 0.00 0.00 0.00 0.00 0.00 0.00 0.00 0.00 0.00 0.00 0.01 0.03 0.04 0.04 0.04 0.05 0.06 0.07 0.08 0.08 0.08 0.10 0.12 0.16 0.18
0.13 0.07 0.04 0.00 0.00 0.00 0.00 0.00 0.00 0.00 0.00 0.00 0.00 0.00 0.00 0.00 0.00 0.00 0.00 0.00 0.00 0.00 0.00 0.00 0.00 0.00 0.00 0.00 0.01 0.01 0.02 0.02 0.03 0.05 0.05 0.05 0.05 0.06 0.08 0.10 0.14 0.13 0.08 0.05
0.15 0.15 0.10 0.01 0.00 0.00 0.00 0.01 0.00 0.00 0.00 0.00 0.00 0.00 0.00 0.00 0.00 0.00 0.00 0.00 0.00 0.00 0.00 0.00 0.00 0.00 0.01 0.00 0.00 0.01 0.01 0.01 0.02 0.02 0.02 0.01 0.03 0.03 0.05 0.05 0.04 0.04 0.05 0.04
0.16 0.17 0.05 0.01 0.01 0.00 0.03 0.02 0.00 0.00 0.00 0.00 0.00 0.00 0.00 0.00 0.00 0.00 0.00 0.00 0.00 0.00 0.00 0.00 0.00 0.00 0.00 0.00 0.00 0.00 0.01 0.01 0.01 0.00 0.00 0.00 0.00 0.01 0.02 0.02 0.02 0.02 0.01 0.00
0.21 0.18 0.05 0.02 0.05 0.08 0.04 0.00 0.00 0.00 0.00 0.00 0.00 0.00 0.00 0.00 0.00 0.00 0.00 0.00 0.00 0.00 0.00 0.00 0.00 0.00 0.00 0.00 0.00 0.01 0.02 0.01 0.00 0.00 0.00 0.00 0.01 0.01 0.02 0.01 0.00 0.00 0.00 0.00
0.10 0.06 0.02 0.02 0.03 0.02 0.01 0.01 0.01 0.01 0.00 0.00 0.00 0.00 0.00 0.00 0.00 0.00 0.00 0.00 0.00 0.00 0.00 0.00 0.00 0.00 0.00 0.01 0.03 0.03 0.02 0.01 0.00 0.00 0.00 0.00 0.00 0.01 0.00 0.00 0.00 0.00 0.00 0.00
0.04 0.02 0.03 0.03 0.02 0.01 0.00 0.01 0.01 0.00 0.00 0.00 0.00 0.00 0.00 0.00 0.00 0.00 0.00 0.00 0.00 0.00 0.00 0.00 0.00 0.00 0.02 0.04 0.03 0.02 0.01 0.00 0.00 0.00 0.00 0.00 0.00 0.00 0.00 0.00 0.00 0.00 0.00 0.00
0.02 0.01 0.02 0.03 0.12 0.09 0.04 0.02 0.02 0.02 0.03 0.02 0.02 0.02 0.01 0.01 0.01 0.00 0.00 0.00 0.00 0.00 0.00 0.00 0.01 0.01 0.01 0.01 0.01 0.00 0.00 0.00 0.00 0.00 0.00 0.00 0.00 0.00 0.00 0.00 0.00 0.00 0.00 0.00
0.03 0.02 0.00 0.00 0.03 0.03 0.08 0.10 0.04 0.04 0.03 0.03 0.02 0.02 0.01 0.02 0.01 0.01 0.00 0.00 0.00 0.00 0.00 0.00 0.00 0.00 0.00 0.00 0.00 0.00 0.00 0.00 0.00 0.00 0.00 0.00 0.00 0.00 0.00 0.00 0.00 0.00 0.00 0.00
0.01 0.01 0.03 0.02 0.03 0.05 0.02 0.05 0.06 0.04 0.02 0.01 0.01 0.01 0.00 0.00 0.00 0.01 0.00 0.00 0.00 0.00 0.00 0.00 0.00 0.00 0.00 0.00 0.00 0.00 0.00 0.00 0.00 0.00 0.00 0.00 0.00 0.00 0.00 0.01 0.02 0.02 0.03 0.02
0.02 0.02 0.05 0.03 0.03 0.02 0.02 0.02 0.01 0.01 0.00 0.00 0.00 0.00 0.00 0.00 0.01 0.01 0.01 0.01 0.01 0.01 0.02 0.02 0.02 0.01 0.00 0.00 0.00 0.00 0.00 0.00 0.00 0.00 0.00 0.01 0.01 0.01 0.02 0.04 0.06 0.07 0.05 0.02
0.02 0.01 0.01 0.02 0.02 0.01 0.01 0.01 0.01 0.00 0.00 0.00 0.00 0.00 0.00 0.00 0.00 0.00 0.00 0.01 0.02 0.04 0.07 0.10 0.11 0.08 0.04 0.03 0.03 0.04 0.06 0.08 0.09 0.09 0.09 0.09 0.10 0.11 0.12 0.14 0.14 0.13 0.13 0.12
0.00 0.00 0.00 0.00 0.00 0.00 0.00 0.00 0.00 0.00 0.00 0.00 0.00 0.00 0.00 0.00 0.00 0.00 0.00 0.01 0.02 0.03 0.03 0.06 0.13 0.19 0.22 0.24 0.29 0.32 0.31 0.28 0.23 0.22 0.25 0.25 0.24 0.21 0.18 0.17 0.16 0.15 0.14 0.13
0.01 0.01 0.00 0.00 0.00 0.00 0.00 0.00 0.00 0.00 0.00 0.00 0.00 0.00 0.00 0.00 0.01 0.03 0.05 0.07 0.12 0.22 0.34 0.40 0.51 0.53 0.51 0.46 0.40 0.39 0.35 0.33 0.31 0.27 0.24 0.22 0.18 0.15 0.13 0.13 0.11 0.09 0.09 0.07
0.13 0.13 0.12 0.09 0.05 0.03 0.03 0.03 0.04 0.05 0.07 0.07 0.06 0.03 0.03 0.06 0.12 0.22 0.34 0.40 0.49 0.64 0.74 0.74 0.65 0.59 0.54 0.48 0.40 0.34 0.29 0.24 0.20 0.16 0.15 0.13 0.10 0.08 0.07 0.06 0.06 0.05 0.04 0.04
0.17 0.15 0.16 0.15 0.13 0.10 0.08 0.07 0.07 0.09 0.14 0.17 0.20 0.31 0.40 0.57 0.67 0.81 0.86 0.80 0.78 0.70 0.78 0.61 0.49 0.37 0.31 0.26 0.19 0.16 0.14 0.12 0.10 0.09 0.08 0.06 0.05 0.04 0.04 0.03 0.04 0.03 0.03 0.03
0.16 0.16 0.14 0.13 0.12 0.11 0.13 0.21 0.24 0.37 0.57 0.58 0.68 0.81 0.90 1.02 0.93 0.83 0.69 0.62 0.59 0.51 0.43 0.34 0.24 0.19 0.15 0.13 0.10 0.08 0.07 0.06 0.05 0.05 0.04 0.03 0.03 0.02 0.02 0.01 0.01 0.01 0.01 0.01
0.35 0.35 0.39 0.42 0.53 0.65 0.75 0.84 0.71 0.81 0.99 0.88 0.72 0.77 0.72 0.74 0.64 0.53 0.40 0.35 0.42 0.31 0.24 0.21 0.16 0.13 0.08 0.06 0.05 0.05 0.03 0.02 0.02 0.01 0.01 0.00 0.01 0.01 0.01 0.01 0.01 0.00 0.01 0.01
0.72 0.69 0.79 0.78 0.64 0.78 0.85 0.79 0.64 0.63 0.62 0.59 0.55 0.51 0.42 0.44 0.39 0.33 0.31 0.26 0.28 0.19 0.13 0.09 0.06 0.04 0.03 0.02 0.01 0.01 0.00 0.00 0.00 0.00 0.01 0.01 0.01 0.01 0.01 0.01 0.01 0.01 0.01 0.01
0.72 0.63 0.59 0.55 0.47 0.50 0.49 0.44 0.44 0.35 0.35 0.35 0.32 0.31 0.25 0.25 0.21 0.14 0.16 0.16 0.09 0.06 0.04 0.02 0.01 0.00 0.00 0.00 0.00 0.00 0.00 0.00 0.00 0.00 0.01 0.01 0.02 0.01 0.01 0.01 0.01 0.01 0.01 0.01
0.41 0.36 0.36 0.35 0.22 0.14 0.18 0.25 0.18 0.16 0.15 0.15 0.14 0.13 0.10 0.07 0.08 0.07 0.05 0.04 0.02 0.01 0.00 0.00 0.00 0.00 0.00 0.00 0.01 0.01 0.01 0.01 0.01 0.02 0.02 0.01 0.01 0.02 0.01 0.01 0.01 0.01 0.01 0.01
0.27 0.26 0.25 0.20 0.14 0.19 0.17 0.15 0.09 0.09 0.08 0.07 0.07 0.05 0.04 0.04 0.04 0.05 0.02 0.01 0.00 0.02 0.02 0.00 0.00 0.00 0.00 0.01 0.01 0.01 0.01 0.02 0.02 0.02 0.02 0.02 0.01 0.02 0.01 0.01 0.02 0.01 0.01 0.01
0.16 0.16 0.16 0.15 0.16 0.16 0.14 0.09 0.11 0.14 0.08 0.07 0.08 0.07 0.06 0.04 0.03 0.03 0.03 0.01 0.01 0.00 0.02 0.02 0.01 0.01 0.01 0.01 0.01 0.01 0.01 0.01 0.02 0.02 0.02 0.01 0.01 0.01 0.02 0.01 0.01 0.01 0.01 0.00
0.10 0.09 0.08 0.07 0.09 0.09 0.08 0.08 0.07 0.07 0.07 0.08 0.09 0.08 0.06 0.04 0.03 0.01 0.02 0.01 0.01 0.01 0.01 0.01 0.02 0.02 0.01 0.01 0.01 0.01 0.01 0.02 0.02 0.02 0.01 0.01 0.01 0.02 0.01 0.01 0.01 0.00 0.00 0.00